Location: Bletchingley
(51.2333°N, 0.1000°W)
Time: 22:34:55
(UTC+00:00)

Cosmos 2016 Rocket - Pass Details

Date: 18 September 2020
Orbit: 946 x 1001 km, 83.0° (Epoch: 30 October)

Event Time Altitude Azimuth Distance (km) Brightness Sun altitude
Rises 18:29:06 0° 195° (SSW) 3,696 7.1 -4.3°
Reaches altitude 10° 18:31:38 10° 198° (SSW) 2,745 6.5 -4.7°
Maximum altitude 18:37:55 70° 282° (WNW) 1,041 4.5 -5.7°
Drops below altitude 10° 18:44:10 10° 7° (N) 2,725 6.4 -6.6°
Sets 18:46:41 0° 9° (N) 3,668 7.0 -7.0°
